GOES 16 (41866 NORAD) Tracking and Keplerian Element Data

This shows tracking and keplerian element data for the satellite.

Feedback or suggestion? Click here.




ElementValue
Catalog41866
NameGOES 16
Epoch Orbit3009
Epoch Day34.52581553
Epoch Year2025
RAAN268.9467
Inclination0.0527
Eccentricity0.0001463
Argument of Perigee51.7259
Mean Anonmoly287.3361
Mean Motion1.00261221
Decay Rate-2.43E-06
L11 41866U 16071A 25034.52581553 -.00000243 00000+0 00000+0 0 9996
L22 41866 0.0527 268.9467 0001463 51.7259 287.3361 1.00261221 30093



Live tracking and technical data element details for GOES 16 (NORAD 41866). GOES 16 can be tracked NOW for your location showing map with azimuth and elevation plus other details from your city location.







IsCatalogInMostPopularTable: catalog: 41866, numindb: 723
Update: records affected: 1



GetName: 41866 GOES 16

Hit Count: updated at: Sat, 17 May 2025 09:16:02 GMT